Temp
71 66 63 69 72 73 75 73 70 75 80 75 74 74 79 84 85 83 83 84 85 88 93 93 94 87 93 92 88 88 85 86 87 88 88 87 82 83 81 88 87 84 80 82
67 62 72 75 75 73 72 69 69 74 78 75 73 73 79 83 83 84 83 84 85 88 91 91 90 90 91 89 89 88 85 84 84 90 87 90 82 91 87 86 85 85 85 83
64 69 75 74 72 69 69 67 68 68 75 76 73 69 74 82 84 85 85 86 88 88 88 90 90 88 88 88 87 87 87 87 85 84 86 85 85 82 80 83 84 85 87 87
69 75 72 71 69 71 63 73 71 69 67 61 75 60 73 77 78 81 83 85 87 89 91 92 92 88 89 85 85 85 83 84 84 85 84 80 83 82 84 83 87 86 84 84
66 68 68 68 69 73 67 75 71 70 66 66 67 64 71 78 74 78 82 85 87 89 91 91 91 89 89 89 89 83 82 78 78 79 81 81 83 85 87 87 81 82 82 82
71 79 76 72 75 75 75 71 69 69 66 56 65 65 67 71 75 79 83 85 87 89 91 92 91 90 87 85 85 82 78 76 78 79 79 79 77 79 81 79 82 83 86 81
66 69 76 76 70 74 71 64 54 52 53 53 68 65 67 73 78 81 80 85 86 86 86 86 83 84 84 81 80 78 76 74 76 76 76 75 74 74 75 74 81 77 79 82
55 55 69 75 71 67 67 65 57 46 49 57 68 58 67 79 82 82 84 84 85 84 86 84 83 82 84 82 80 80 78 76 76 76 74 75 75 80 78 77 76 77 78 79
56 57 73 74 75 74 67 62 71 60 61 55 55 66 74 76 78 80 81 81 81 83 83 84 83 82 82 79 78 79 78 76 76 76 75 75 75 74 74 73 72 75 75 76
64 55 69 72 76 75 71 74 58 62 46 43 51 55 58 69 74 78 78 79 80 82 82 82 82 81 79 79 78 77 77 75 75 76 76 77 74 74 73 73 71 71 72 71
68 61 61 70 66 65 67 65 65 64 60 48 47 55 70 67 75 75 78 79 79 80 80 79 79 78 78 79 77 76 77 77 76 77 76 74 74 74 73 72 71 71 70 70
67 58 47 62 73 75 72 67 66 56 48 57 56 51 73 70 75 79 80 80 80 80 80 80 79 79 79 79 79 77 75 77 78 77 75 73 73 72 71 71 70 70 69 69
66 57 47 45 58 69 65 67 68 66 58 53 43 50 70 73 75 77 77 79 79 79 79 79 78 78 77 76 76 76 76 76 76 75 74 72 71 70 69 69 69 69 68 68
68 61 56 48 53 63 60 63 64 56 42 48 51 54 59 63 67 70 75 77 77 76 75 75 76 76 75 73 73 73 74 75 74 73 72 70 69 69 68 67 67 67 68 67
66 56 59 53 61 60 58 64 62 61 62 54 60 57 53 62 71 74 76 75 74 73 72 71 72 71 72 71 70 71 71 71 71 69 68 67 68 68 68 67 66 65 64 65
63 53 55 47 59 59 56 61 62 63 62 63 64 59 66 72 73 70 70 73 72 72 72 71 69 69 68 67 68 68 68 69 69 67 66 67 67 67 67 66 63 61 62 63
56 52 50 47 57 53 48 59 59 63 66 65 60 67 74 71 71 72 70 71 69 70 69 68 67 67 66 66 66 65 66 66 65 64 65 65 65 65 65 64 62 62 61 61
54 54 56 46 52 39 59 68 67 66 67 69 68 69 71 72 74 74 74 69 66 68 67 67 67 65 64 65 65 64 64 63 63 62 62 62 62 60 60 59 58 59 60 60
56 51 42 44 48 55 57 60 61 60 60 67 67 69 71 72 69 66 69 69 67 66 67 66 66 64 63 63 62 61 61 61 60 59 58 58 57 55 54 53 53 58 58 57
57 56 53 52 44 42 57 63 68 68 50 66 67 66 67 67 59 59 65 66 65 65 65 63 64 63 61 60 58 57 57 56 55 55 54 54 53 51 50 48 51 55 55 56
51 53 49 50 45 54 62 64 66 49 48 64 65 62 56 56 57 61 66 64 65 64 62 63 62 59 56 55 53 52 51 51 51 51 50 50 50 49 48 48 51 53 54 55
50 46 47 50 44 40 65 63 53 56 63 62 62 64 62 62 63 64 63 62 62 61 61 61 59 56 53 52 50 48 47 48 47 45 46 47 47 47 48 50 51 52 53 52
46 53 50 51 50 59 64 62 64 63 59 62 63 65 65 63 63 63 62 61 61 60 61 61 59 55 51 49 47 44 44 44 42 42 44 44 45 47 47 49 50 51 52 49
56 61 49 54 57 60 62 64 64 64 61 62 63 64 64 61 62 61 61 60 60 60 60 60 58 55 50 44 42 39 40 41 41 40 42 43 43 44 46 49 50 48 47 47
57 60 55 55 57 60 61 61 61 62 64 65 66 65 63 61 60 60 58 58 58 59 59 58 56 55 52 45 39 38 38 39 38 39 41 42 43 43 44 46 45 45 48 46
63 57 51 49 60 57 56 60 64 63 62 64 63 61 62 61 59 59 57 57 57 57 57 56 55 53 52 49 44 39 39 39 38 38 40 41 42 43 42 43 44 44 42 42
MSLP
1003.78 1003.14 1001.60 1001.04 1000.77 1000.12 998.64 997.97 997.95 998.02 998.25 998.73 998.79 998.59 998.03 997.81 997.74 998.10 998.64 999.07 999.39 999.33 999.91 1000.81 1001.35 1002.01 1002.87 1003.25 1003.95 1004.70 1005.71 1006.48 1007.04 1006.95 1006.97 1007.57 1008.27 1008.67 1008.71 1008.63 1008.93 1009.71 1010.12 1010.40
1002.61 1001.11 1000.49 1000.50 1000.03 999.71 999.00 998.39 998.01 998.25 998.37 998.71 998.48 997.95 997.52 997.18 997.23 997.52 997.92 998.27 998.55 998.80 999.27 999.87 1000.91 1001.98 1002.81 1003.46 1003.77 1004.55 1005.69 1006.48 1007.36 1007.11 1007.26 1006.62 1007.51 1007.29 1008.03 1008.70 1009.10 1009.25 1009.52 1009.98
1000.25 999.59 999.97 999.46 999.13 999.24 999.18 998.82 998.63 998.45 998.26 998.64 998.46 997.62 997.00 996.58 996.81 997.21 997.66 997.88 997.81 998.16 998.79 999.31 1000.03 1001.87 1002.81 1003.56 1004.24 1004.85 1005.66 1006.63 1007.23 1007.84 1007.90 1007.66 1007.90 1008.07 1008.61 1008.88 1009.21 1009.58 1009.48 1009.87
999.66 998.99 998.58 998.41 998.56 998.98 998.68 999.11 998.93 998.81 998.69 997.79 997.13 996.09 994.95 995.73 996.14 996.72 997.18 997.38 997.22 997.53 998.12 998.45 999.35 1001.02 1002.21 1003.32 1004.40 1004.64 1005.97 1006.82 1007.53 1007.60 1007.69 1008.04 1008.11 1007.86 1008.64 1009.01 1009.14 1009.44 1010.05 1010.28
998.31 998.15 997.97 997.73 998.22 998.57 998.49 998.66 998.91 999.07 998.99 998.60 997.29 996.62 994.74 995.06 995.49 995.75 996.50 996.82 997.05 997.34 997.85 998.38 999.57 1000.99 1002.40 1003.17 1003.75 1004.40 1006.19 1007.38 1007.59 1007.90 1008.23 1008.43 1008.15 1008.45 1008.82 1008.95 1009.72 1009.90 1010.39 1010.52
997.62 997.54 997.22 997.50 997.87 998.20 998.85 999.02 999.09 999.15 998.92 997.97 997.06 995.89 994.22 994.51 994.92 994.79 995.47 996.32 996.69 997.10 997.47 998.07 999.81 1001.12 1002.47 1003.70 1004.57 1005.79 1006.63 1007.31 1007.98 1008.21 1008.57 1008.74 1008.71 1009.18 1009.19 1009.45 1009.61 1009.77 1009.83 1010.25
997.37 996.73 996.88 997.22 997.36 997.96 998.50 998.56 998.38 998.33 997.97 996.99 996.30 995.58 994.33 995.52 995.66 995.13 995.74 996.05 997.10 998.13 998.66 999.49 1001.19 1002.26 1003.22 1004.16 1005.71 1006.62 1007.22 1007.76 1008.15 1008.89 1009.31 1009.66 1009.99 1010.00 1010.29 1010.54 1010.24 1010.62 1010.44 1010.33
996.48 996.17 995.97 996.51 996.46 996.70 997.34 997.79 996.99 996.54 996.65 996.27 995.95 995.34 994.66 994.75 995.83 996.15 996.39 997.09 997.83 998.80 999.48 1000.34 1001.58 1002.65 1003.52 1004.96 1006.03 1006.91 1007.59 1008.04 1008.46 1009.19 1010.01 1010.36 1010.25 1010.07 1010.61 1010.45 1011.02 1011.03 1010.75 1010.78
995.85 995.56 995.61 995.96 996.64 996.31 996.37 996.77 997.23 996.86 996.96 997.47 997.31 995.60 995.51 995.89 996.46 996.62 997.11 997.99 998.58 999.09 999.91 1000.85 1002.29 1003.37 1004.32 1005.35 1006.65 1007.26 1007.76 1008.38 1008.61 1008.91 1009.69 1010.27 1010.69 1010.92 1010.98 1011.29 1011.52 1011.11 1010.99 1010.99
995.63 995.29 995.03 995.40 996.20 996.28 995.83 995.99 996.93 997.07 997.38 997.63 997.28 997.21 995.72 995.36 995.78 996.49 997.16 998.19 999.10 999.77 1000.60 1001.79 1002.81 1003.99 1005.33 1006.36 1007.40 1008.08 1008.32 1008.55 1008.94 1009.32 1009.86 1010.26 1010.60 1010.70 1010.89 1011.11 1011.13 1011.11 1011.19 1011.03
995.99 995.69 995.40 995.12 995.10 995.09 995.74 995.70 996.59 997.06 997.61 997.83 997.76 997.16 997.03 996.63 995.95 996.31 997.27 998.49 999.69 1000.52 1001.74 1003.01 1004.01 1005.19 1006.10 1006.87 1007.67 1008.09 1008.35 1008.66 1009.05 1009.52 1009.92 1010.10 1010.13 1010.54 1010.66 1010.93 1010.98 1010.98 1011.00 1010.98
996.18 997.01 996.60 994.88 994.82 995.10 994.94 995.71 996.35 996.88 998.47 998.41 998.29 998.58 998.32 998.03 996.83 996.88 997.18 998.66 1000.39 1001.15 1002.18 1003.35 1004.53 1005.51 1006.25 1006.77 1007.34 1008.09 1008.62 1008.84 1009.05 1009.35 1009.70 1009.93 1010.28 1010.43 1010.58 1010.74 1010.68 1010.67 1010.62 1010.63
996.19 996.40 996.49 997.32 996.93 995.41 995.38 996.02 996.47 997.21 998.92 998.67 1000.65 999.98 999.52 998.83 998.18 997.87 998.16 998.85 1000.31 1001.67 1002.74 1003.97 1004.92 1005.64 1006.50 1007.26 1007.78 1008.16 1008.70 1008.83 1009.17 1009.25 1009.46 1009.56 1009.88 1010.30 1010.38 1010.39 1010.41 1010.39 1010.23 1010.06
995.34 995.58 995.77 996.19 996.19 995.99 995.88 996.23 997.29 998.22 999.42 999.85 999.75 999.94 1000.32 1000.41 999.73 999.40 999.52 1000.32 1001.07 1002.85 1004.16 1004.94 1005.48 1006.27 1007.28 1008.17 1008.63 1008.92 1009.07 1009.24 1009.51 1009.63 1009.81 1010.05 1010.21 1010.31 1010.39 1010.39 1010.27 1010.06 1009.86 1009.65
995.51 995.78 996.60 997.44 997.34 997.19 997.23 996.16 996.95 997.20 997.44 998.28 998.46 999.23 1000.91 1000.03 998.95 999.46 1000.18 1001.47 1002.49 1003.98 1005.23 1006.11 1006.30 1007.32 1007.66 1008.60 1009.30 1009.69 1009.74 1009.86 1010.09 1010.19 1010.16 1010.08 1010.01 1009.97 1009.85 1009.72 1009.80 1009.85 1009.72 1009.33
996.39 996.96 997.36 998.56 997.89 997.96 997.80 997.60 997.59 997.48 997.87 997.65 997.88 998.50 999.80 999.99 999.80 1000.23 1001.30 1002.15 1003.15 1004.44 1005.47 1006.53 1007.33 1007.96 1008.66 1009.46 1009.67 1010.20 1010.22 1010.29 1010.46 1010.52 1010.17 1010.01 1009.81 1009.54 1009.34 1009.31 1009.48 1009.49 1009.17 1008.77
998.26 997.95 997.98 998.21 998.33 998.80 998.65 997.44 997.68 997.35 997.34 997.44 997.43 997.78 998.12 998.72 999.85 1000.34 1002.18 1002.80 1004.01 1005.09 1006.40 1007.43 1008.16 1008.75 1009.54 1010.06 1010.12 1010.64 1010.88 1010.87 1010.83 1010.57 1010.23 1010.04 1009.84 1009.58 1009.33 1009.28 1009.35 1009.06 1008.77 1008.54
998.76 998.75 998.33 998.66 998.93 998.69 997.44 997.26 997.37 997.07 997.32 997.81 998.26 998.68 999.08 999.35 1000.32 1001.27 1002.81 1003.81 1005.51 1006.60 1007.73 1008.45 1009.08 1009.91 1010.58 1010.85 1011.03 1011.38 1011.28 1011.13 1011.03 1010.87 1010.68 1010.56 1010.33 1010.13 1009.92 1009.73 1009.44 1008.94 1008.52 1008.22
999.72 999.74 1000.05 999.25 998.35 998.05 998.45 998.68 998.46 998.36 998.47 998.93 999.10 999.36 999.99 1000.54 1001.92 1003.89 1005.07 1005.70 1007.14 1008.52 1009.10 1009.60 1010.33 1010.89 1011.23 1011.43 1011.80 1011.88 1011.68 1011.46 1011.41 1011.22 1011.16 1011.10 1010.97 1010.74 1010.57 1010.27 1009.73 1008.88 1008.36 1008.12
999.66 999.88 999.29 998.66 998.58 998.24 998.12 999.28 999.47 999.20 1000.00 1000.37 1000.47 1000.57 1001.12 1002.39 1003.31 1005.39 1006.94 1007.76 1008.87 1009.68 1010.17 1010.73 1010.97 1011.33 1011.80 1012.26 1012.59 1012.51 1012.19 1012.17 1011.96 1012.03 1011.93 1011.74 1011.49 1011.25 1010.87 1010.52 1009.74 1008.91 1008.46 1007.96
999.12 999.10 999.33 999.36 999.44 999.04 999.69 1000.25 1000.55 1000.46 1001.91 1001.55 1001.94 1002.67 1003.71 1004.62 1006.31 1007.51 1008.25 1009.10 1009.73 1010.27 1010.85 1011.25 1011.62 1012.28 1013.09 1013.32 1013.47 1013.22 1013.13 1012.87 1012.91 1012.78 1012.37 1011.99 1011.68 1011.28 1010.92 1010.17 1009.36 1008.62 1008.11 1007.54
999.10 999.67 999.64 999.77 1000.21 1000.37 1000.66 1001.05 1001.05 1002.34 1002.42 1003.06 1003.59 1004.49 1005.47 1006.54 1007.40 1008.21 1009.04 1009.65 1010.20 1010.67 1011.15 1011.71 1012.21 1012.98 1013.77 1014.09 1014.11 1013.87 1013.66 1013.66 1013.51 1013.17 1012.60 1012.05 1011.57 1011.08 1010.46 1009.53 1008.87 1008.32 1007.75 1007.24
999.97 1000.17 1000.06 1000.57 1000.71 1001.57 1001.75 1002.01 1002.53 1002.93 1003.68 1004.25 1004.91 1005.61 1006.28 1007.11 1007.96 1008.74 1009.48 1010.17 1010.69 1011.22 1011.54 1011.93 1012.50 1013.33 1014.13 1014.67 1014.71 1014.54 1014.34 1014.17 1013.89 1013.38 1012.60 1012.05 1011.44 1010.76 1010.18 1009.19 1008.53 1007.87 1007.34 1006.91
1000.32 1000.54 1001.04 1001.12 1001.72 1002.00 1002.44 1002.84 1003.36 1004.05 1004.92 1005.79 1006.35 1006.74 1007.28 1008.04 1008.85 1009.66 1010.27 1010.80 1011.17 1011.68 1011.99 1012.30 1012.64 1013.18 1014.13 1015.22 1015.58 1015.63 1015.16 1014.66 1014.10 1013.41 1012.66 1012.00 1011.38 1010.67 1010.01 1009.18 1008.53 1008.10 1007.48 1006.92
1000.73 1000.85 1001.15 1001.59 1002.18 1002.80 1003.16 1003.82 1004.58 1005.36 1006.07 1006.57 1007.18 1007.77 1008.45 1009.16 1009.84 1010.45 1011.20 1011.65 1011.99 1012.30 1012.56 1012.80 1013.20 1013.54 1014.03 1015.24 1015.68 1015.81 1015.43 1014.75 1014.04 1013.40 1012.66 1011.87 1011.30 1010.63 1009.91 1009.32 1008.75 1008.20 1007.42 1006.97
1000.73 1000.92 1001.52 1002.01 1002.15 1003.01 1004.20 1004.70 1005.24 1005.92 1006.74 1007.44 1008.12 1008.84 1009.53 1010.19 1010.81 1011.36 1011.98 1012.51 1012.76 1012.95 1013.19 1013.41 1013.66 1013.96 1014.32 1014.79 1015.16 1015.44 1015.20 1014.69 1014.04 1013.26 1012.57 1012.07 1011.30 1010.65 1010.15 1009.37 1008.40 1007.74 1007.01 1006.53
Wind_Speed
21 19 21 24 23 22 20 19 19 15 12 7 11 13 16 14 13 12 14 18 19 22 23 19 17 10 11 12 14 12 9 7 7 6 7 7 8 7 3 3 4 3 4 2
17 23 24 24 24 22 20 13 10 8 10 8 12 14 14 12 8 11 14 14 19 22 22 19 12 10 14 7 10 10 7 8 5 5 6 5 5 6 6 3 5 8 5 6
21 19 26 23 19 19 18 17 16 14 15 13 13 17 18 15 10 10 9 14 16 19 21 22 22 15 12 8 11 8 6 1 5 7 1 3 2 4 3 5 5 4 4 4
24 24 25 19 21 17 18 18 15 11 11 12 12 13 10 12 11 11 13 13 15 16 15 14 16 18 16 15 10 3 5 5 8 8 6 6 5 4 4 5 5 5 3 2
24 24 16 23 20 19 15 12 15 16 16 15 17 10 10 10 11 14 14 15 13 12 14 14 17 16 13 10 10 12 14 8 6 4 7 7 7 6 6 5 6 1 3 2
25 21 19 16 19 18 14 13 11 12 13 16 19 16 12 6 7 10 15 15 14 8 9 17 10 10 13 11 10 11 14 11 10 8 5 4 8 6 2 3 2 5 6 6
23 26 19 17 21 18 15 12 11 13 14 14 18 17 4 13 3 4 4 12 9 5 6 13 12 10 11 16 15 13 13 12 11 9 8 8 7 5 2 1 3 4 4 5
20 25 24 16 21 22 23 18 12 17 14 15 19 10 2 14 9 6 8 6 9 11 12 14 16 13 16 15 15 15 14 13 12 11 8 4 4 2 2 2 5 5 6 7
19 24 26 22 19 20 19 21 18 19 12 9 9 9 14 13 10 10 11 10 11 12 12 16 17 15 14 14 12 11 11 10 9 9 5 3 1 1 4 4 5 6 6 7
22 17 21 25 22 22 22 19 18 13 12 16 13 13 12 19 16 12 13 10 11 13 15 14 14 13 12 11 10 8 8 8 7 5 3 1 3 4 4 6 8 9 10 11
23 12 17 15 20 22 19 16 14 12 13 10 11 8 14 10 5 12 12 13 13 14 14 12 13 12 12 11 10 8 7 6 5 2 1 3 5 7 7 8 9 10 11 12
19 12 8 24 20 22 20 20 18 10 10 11 11 2 10 7 7 10 14 17 13 14 15 14 13 12 11 9 8 7 4 1 2 3 5 6 7 8 9 10 11 11 12 13
24 11 13 3 11 11 15 16 18 10 4 9 7 4 11 10 5 6 10 16 16 13 13 12 10 8 8 6 4 4 4 5 6 6 7 8 9 10 11 12 12 13 13 14
22 17 17 11 6 16 19 19 25 13 3 10 10 14 10 13 11 4 3 10 12 9 10 9 9 9 7 5 5 6 6 7 7 8 8 9 10 10 11 12 13 13 13 14
15 19 14 6 10 4 7 18 7 15 8 10 8 17 14 21 15 10 9 10 13 12 10 8 8 6 6 5 5 6 7 7 8 9 10 11 11 12 12 12 12 13 14 14
3 12 12 15 14 7 5 9 9 11 13 13 12 5 14 11 5 8 11 13 13 11 9 7 5 4 4 5 6 8 9 9 10 11 12 12 13 13 13 12 12 13 13 14
8 8 12 9 10 5 11 16 15 13 14 9 11 8 8 6 8 9 12 7 6 7 6 4 4 6 6 8 9 9 10 10 11 12 12 13 13 14 13 12 13 14 13 11
7 8 6 6 12 11 9 5 2 10 10 10 9 10 7 1 9 7 5 9 11 6 4 5 6 6 7 7 8 9 10 11 11 12 12 12 13 13 14 13 15 14 12 11
7 6 1 7 11 9 8 4 5 7 8 0 6 4 6 12 18 15 13 14 11 6 4 6 7 6 7 8 10 10 11 11 11 12 12 12 13 14 14 14 15 14 11 11
19 11 4 2 8 5 12 8 1 1 8 4 4 2 10 14 8 11 10 8 7 5 7 7 7 7 9 11 11 12 12 12 12 12 13 14 13 14 14 13 14 14 11 13
9 6 7 6 4 8 12 6 6 11 6 6 13 13 17 14 11 10 9 8 7 7 8 8 9 10 11 11 12 12 12 12 12 14 15 14 13 14 14 15 14 12 12 14
11 7 7 8 5 4 7 6 2 8 10 13 14 13 15 16 13 11 8 7 7 7 7 9 9 10 11 12 12 12 12 13 14 14 15 14 14 11 12 14 14 12 13 12
7 6 4 4 5 8 9 10 10 8 12 12 13 13 12 12 10 9 8 7 7 7 7 7 9 11 11 13 13 13 13 13 13 13 14 14 14 13 12 13 13 11 11 8
6 5 4 8 9 11 11 10 14 15 15 14 11 10 11 11 10 9 8 7 7 7 7 8 9 10 9 10 11 11 13 12 13 14 13 11 11 12 12 9 9 10 10 9
3 6 6 8 14 13 9 15 16 16 14 14 13 12 11 11 9 9 8 7 7 7 7 8 8 10 10 8 7 9 10 12 10 11 11 11 8 10 10 10 9 9 11 8
4 4 4 4 10 8 12 12 17 15 15 14 14 13 13 12 10 9 9 8 7 8 8 8 9 10 11 10 8 7 9 12 11 10 8 9 9 8 9 8 9 11 14 14
Wind_Direction
197 203 209 207 215 231 241 227 224 203 223 207 247 260 258 258 250 236 230 228 233 228 214 196 212 129 170 138 117 124 131 142 208 209 189 178 184 205 230 268 203 174 197 242
182 214 213 224 215 229 249 247 229 243 236 233 271 260 260 256 250 245 244 230 231 219 212 198 199 213 205 138 137 130 111 135 202 253 251 143 201 175 170 165 205 194 198 196
208 212 222 212 218 215 228 227 226 241 210 212 267 259 246 238 225 215 244 227 217 202 208 218 193 183 160 158 138 123 92 267 181 255 222 154 132 108 111 137 148 155 143 175
222 231 196 208 219 209 218 218 248 250 255 252 274 253 192 210 186 208 210 221 225 191 209 210 193 187 208 180 214 196 112 177 188 205 196 201 215 181 171 157 174 146 140 200
210 234 200 207 210 207 230 211 222 224 231 256 254 235 288 165 197 197 211 211 219 222 219 191 176 163 171 162 176 140 157 139 96 173 215 202 211 154 166 165 122 220 172 210
226 208 213 207 210 212 218 231 239 245 243 237 243 253 234 169 230 190 190 205 213 206 207 181 159 155 157 145 144 143 137 138 137 115 76 84 70 35 114 43 191 209 220 181
213 236 204 219 214 194 206 214 212 210 218 236 231 226 219 155 235 108 237 177 173 164 157 116 137 168 162 140 144 141 135 126 121 109 94 77 76 85 149 322 278 339 297 294
217 211 205 203 221 209 210 209 234 208 209 223 223 227 254 139 106 98 109 142 148 172 150 140 140 139 142 141 151 143 142 134 128 121 107 101 73 99 277 37 340 299 309 301
207 225 198 201 218 229 189 214 232 266 296 265 331 230 125 157 174 154 140 149 158 142 145 134 133 142 137 135 140 140 123 123 116 103 105 106 74 17 339 292 288 279 295 293
235 220 215 193 208 214 243 203 207 234 236 254 175 223 276 169 169 172 154 163 142 136 129 131 128 121 117 125 117 111 110 101 102 100 119 85 322 301 310 298 294 299 294 293
226 265 207 194 199 206 201 219 234 231 232 231 262 210 94 8 176 157 163 147 152 136 134 143 138 133 143 142 136 133 127 125 120 131 15 322 332 314 311 299 294 291 292 290
220 235 217 205 187 220 200 208 224 200 217 280 270 117 297 148 291 172 152 139 149 159 148 141 139 151 148 141 130 123 101 16 22 337 326 317 306 305 299 293 294 293 289 286
206 210 186 56 285 212 193 222 225 226 18 202 238 135 353 360 321 166 149 147 153 144 137 136 139 133 109 91 66 40 12 359 335 336 318 320 314 306 302 301 296 292 290 287
202 210 219 204 166 190 207 185 198 163 95 227 223 248 232 273 263 275 204 136 121 147 135 144 132 112 86 54 21 353 346 344 328 324 316 305 299 296 293 291 287 284 286 287
208 209 227 86 159 115 237 224 214 250 220 257 238 189 223 247 189 162 122 144 135 136 155 139 116 92 81 46 359 327 343 327 327 316 308 303 299 292 288 288 295 295 289 287
115 195 256 134 176 173 241 226 247 232 252 257 258 176 280 153 103 101 148 167 164 157 134 108 99 76 35 2 351 341 326 331 324 310 307 307 303 300 295 298 295 287 280 284
176 162 196 198 168 165 220 220 223 237 216 239 252 250 208 194 160 146 173 160 161 133 98 76 42 29 14 348 355 325 330 324 318 313 314 309 306 300 298 301 295 291 287 283
164 172 180 162 164 193 104 59 287 248 227 237 238 278 292 247 170 104 119 126 89 82 67 44 26 8 358 341 334 334 325 318 320 314 312 311 310 306 303 302 294 285 283 286
223 106 279 178 183 101 136 157 187 210 206 271 282 242 219 95 92 74 56 64 72 62 33 31 20 5 349 342 348 329 320 322 319 314 318 314 310 304 302 297 294 288 287 290
172 216 168 209 186 208 99 110 35 257 138 121 238 97 129 144 175 107 97 91 98 65 51 23 10 3 6 357 345 329 328 327 323 324 317 312 309 300 295 292 291 292 296 285
165 178 170 153 187 97 109 119 199 216 109 117 81 65 64 87 97 100 115 100 85 66 60 23 29 20 4 355 342 328 327 325 328 327 316 310 305 300 297 287 282 281 283 285
151 145 198 159 166 154 114 169 282 126 117 95 95 99 108 116 126 123 105 87 67 57 39 40 26 21 7 1 344 331 327 334 327 320 315 310 308 297 293 291 292 286 285 285
158 162 183 126 97 107 75 100 99 96 101 103 106 104 109 107 102 99 89 72 68 44 27 22 28 17 8 2 352 337 334 331 325 309 312 314 310 303 296 296 292 292 289 293
94 111 105 143 146 121 124 121 96 91 87 89 104 110 99 102 99 88 69 62 54 44 28 11 11 16 14 13 358 342 329 323 320 318 316 313 310 315 303 302 307 307 301 294
37 161 162 122 119 116 117 110 111 107 108 109 99 95 96 93 83 84 81 65 51 41 28 16 13 2 27 12 346 336 326 323 320 320 320 320 318 313 314 313 306 297 290 289
178 118 146 166 153 116 134 117 117 125 114 112 106 99 87 86 84 83 76 61 43 40 25 20 14 10 5 5 351 336 332 339 333 328 332 328 322 327 321 315 315 293 275 280